Regional Weather Roundup
Issued by NWS

Home | Current Version | Previous Version | Text Only | Print | Product List | Glossary On
Versions: 1 2 3 4 5 6 7 8 9 10 11 12 13 14 15 16 17 18 19 20 21 22 23 24 25 26 27 28 29 30 31 32 33 34 35 36 37 38 39 40 41 42 43 44 45 46 47 48 49 50
000
ASUS43 KMPX 250701
RWRMN
WEATHER ROUNDUP FOR MINNESOTA
NATIONAL WEATHER SERVICE TWIN CITIES/CHANHASSEN MN
200 AM CDT SAT APR 25 2015


NOTE: "FAIR" INDICATES FEW OR NO CLOUDS BELOW 12,000 FEET WITH NO
SIGNIFICANT WEATHER AND/OR OBSTRUCTIONS TO VISIBILITY. N/A MEANS
CURRENT SKY AND/OR WEATHER CONDITIONS ARE NOT AVAILABLE.

MNZ060>063-068>070-250800-
   Twin Cities Metro

CITY           SKY/WX    TMP DP  RH WIND       PRES   REMARKS
TWIN CITIES    CLOUDY    44  39  82 E12       29.81S
ST PAUL        CLOUDY    44  38  79 SE10      29.82F
CRYSTAL        CLOUDY    46  38  73 SE9G20    29.80S
BLAINE         CLOUDY    46  39  76 E9        29.81F
LAKEVILLE      CLOUDY    41  37  87 E13       29.79F
EDEN PRAIRIE   CLOUDY    44  39  82 E16G23    29.78F
SOUTH ST PAUL  CLOUDY    44  38  81 SE13      29.80F
LAKE ELMO      CLOUDY    45  37  76 E10G20    29.82F
$$
MNZ001>005-007-008-013>017-022>024-027-028-250800-
   Northwest Minnesota

CITY           SKY/WX    TMP DP  RH WIND       PRES   REMARKS
BEMIDJI        CLOUDY    39  31  70 E9        29.85S
HALLOCK        CLOUDY    43  34  70 E7        29.85S
ROSEAU         CLOUDY    39  32  75 E7        29.88S
WARROAD        CLOUDY    37  30  75 E7        29.89S
THIEF RVR FALL CLOUDY    43  30  61 E12       29.85S
CROOKSTON      CLOUDY    45  34  65 E6        29.84S
FOSSTON        CLOUDY    39  30  70 E6        29.84S
DETROIT LAKES  CLOUDY    41  34  75 SE9       29.80S
MOORHEAD       CLOUDY    45  36  70 E6        29.80F
PARK RAPIDS    CLOUDY    41  32  70 E9        29.82S
MAHNOMEN       CLOUDY    42  33  70 E5        29.82S
$$
MNZ006-009>011-018-025>026-250800-
   North Central Minnesota

CITY           SKY/WX    TMP DP  RH WIND       PRES   REMARKS
BAUDETTE       CLOUDY    39  24  55 E10       29.90R
FLAG ISLAND    CLOUDY    39  27  60 E5        29.90S
INTL FALLS     CLOUDY    38  21  50 E7        29.92S
WASKISH        CLOUDY    39  28  65 CALM      29.89R
BIG FORK       CLOUDY    37  19  48 E6        29.90S
LONGVILLE      CLOUDY    37  28  70 E7        29.85S
GRAND RAPIDS   CLOUDY    37  19  48 E8        29.88S
CRANE LAKE     CLOUDY    36  16  44 CALM      29.96S
ORR            CLOUDY    36  16  44 CALM      29.90S
COOK           CLOUDY    36  18  48 E3        29.93S
WALKER         CLOUDY    39  31  73 E8        29.85S
$$
MNZ012-019>021-037-250800-
   Northeast Minnesota

CITY           SKY/WX    TMP DP  RH WIND       PRES   REMARKS
DULUTH         CLOUDY    36  24  62 E12       29.90S
ELY            CLOUDY    36  18  48 E6        29.94F
HIBBING        CLOUDY    37  19  48 E8        29.91R
EVELETH        MOCLDY    36  19  51 E7        29.92S
DULUTH HARBOR  CLOUDY    36  32  87 NE20      29.94S
TWO HARBORS    CLOUDY    39  25  56 NE12G20   29.92S
SILVER BAY     CLOUDY    36  19  51 NE13G18   29.94S
GRAND MARAIS     N/A     37  12  35 NE10      30.01F
G MARAIS ARPRT CLOUDY    30   3  31 NE9       29.97F WCI  22
$$
MNZ029>031-032-039>041-046>048-054>057-064-250800-
   West Central Minnesota

CITY           SKY/WX    TMP DP  RH WIND       PRES   REMARKS
FERGUS FALLS   CLOUDY    43  37  81 SE12      29.79F
WHEATON        CLOUDY    39  39 100 E13       29.77R FOG
MORRIS         CLOUDY    43  43 100 E14       29.74S FOG
ALEXANDRIA     LGT RAIN  41  40  96 SE13      29.78F FOG
ELBOW LAKE     MIX PCPN  42  41  97 E13       29.76S
WADENA         CLOUDY    39  32  75 E8        29.80S
GLENWOOD       CLOUDY    41  39  93 E15G21    29.78S FOG
APPLETON       CLOUDY    45  41  87 E12       29.74F FOG
BENSON         DRIZZLE   43  41  93 SE10G16   29.76S
ORTONVILLE     DRIZZLE   43  39  87 E14       29.72F
MADISON        DRIZZLE   45  43  93 E13       29.73S
WILLMAR        MOCLDY    45  43  93 E13       29.77S FOG
$$
MNZ033>034-036-042>043-049>051-058-059-250800-
   Central Minnesota

CITY           SKY/WX    TMP DP  RH WIND       PRES   REMARKS
ST CLOUD       CLOUDY    44  38  79 SE8       29.80S
SAUK CENTRE    CLOUDY    41  40  97 E8        29.79S FOG
PAYNESVILLE    CLOUDY    40  40  99 NE10      29.79S FOG
AITKIN         CLOUDY    37  28  70 E8        29.84S
PINE RIVER     CLOUDY    39  32  75 E10       29.87S
BRAINERD       CLOUDY    39  31  72 VRB6      29.84R
STAPLES        CLOUDY    39  32  75 E6        29.81S
LONG PRAIRIE   CLOUDY    41  37  87 E7        29.80S FOG
LITTLE FALLS   CLOUDY    41  32  70 E5        29.81S
LITCHFIELD     CLOUDY    45  45 100 E12       29.78S FOG
BUFFALO        CLOUDY    44  38  81 E10G18    29.81R
MAPLE LAKE     CLOUDY    45  41  86 E10G16    29.81R
$$
MNZ037-044-045-052-053-250800-
   East Central Minnesota

CITY           SKY/WX    TMP DP  RH WIND       PRES   REMARKS
PRINCETON      CLOUDY    46  39  76 E9        29.81F
MORA           CLOUDY    41  30  65 E8        29.86R
CAMBRIDGE      MOCLDY    46  36  66 E14       29.80F
RUSH CITY      CLOUDY    46  34  64 E8        29.85R
MOOSE LAKE     CLOUDY    34  30  86 NE8       29.87S WCI  27
HINCKLEY       CLOUDY    41  34  75 NE7       29.86R
CLOQUET        CLOUDY    36  27  69 E9        29.89F
MCGREGOR       CLOUDY    36  30  80 E10       29.88S
$$
MNZ071>073-080-081-089-090-097-098-250800-
   Southwest Minnesota

CITY           SKY/WX    TMP DP  RH WIND       PRES   REMARKS
MONTEVIDEO     LGT RAIN  43  43 100 SE12      29.74F
GRANITE FALLS  CLOUDY    43  40  89 E12G17    29.75R
CANBY          CLOUDY    44  42  94 E14       29.72R FOG
MARSHALL       CLOUDY    45  39  81 SE14      29.70S
REDWOOD FALLS  CLOUDY    45  40  82 E13       29.73S
OLIVIA         CLOUDY    41  36  81 E10       29.74S
PIPESTONE      CLOUDY    45  43  93 E14       29.66F
WINDOM         CLOUDY    45  41  87 E8        29.70S
WORTHINGTON    CLOUDY    45  39  81 E9        29.69R
JACKSON        CLOUDY    45  41  87 E14       29.69S
TRACY          CLOUDY    46  42  89 SE7       29.72S
SLAYTON        CLOUDY    44  43  95 E6        29.71S
$$
MNZ065>067-074>077-082>085-091>093-250800-
   South Central Minnesota

CITY           SKY/WX    TMP DP  RH WIND       PRES   REMARKS
MANKATO        CLOUDY    45  37  76 E14G22    29.75F
NEW ULM        CLOUDY    45  39  81 E14G20    29.73F
ST JAMES       CLOUDY    45  39  81 E12       29.73S
FAIRMONT       CLOUDY    45  19  36 E14       29.70S
GLENCOE        CLOUDY    45  42  91 E14       29.76F
FARIBAULT      CLOUDY    43  39  87 E7        29.78F
OWATONNA       CLOUDY    43  37  81 E15       29.76F
ALBERT LEA     CLOUDY    43  39  87 E15       29.74F
$$
MNZ078>079-086>088-094>096-250800-
   Southeast Minnesota

CITY           SKY/WX    TMP DP  RH WIND       PRES   REMARKS
ROCHESTER      CLOUDY    41  37  86 E20G26    29.78F
RED WING       CLOUDY    43  37  81 E9        29.81F
STANTON        CLOUDY    44  38  82 E13G20    29.78S
DODGE CENTER   CLOUDY    43  39  87 E15       29.77S
AUSTIN         CLOUDY    43  37  81 E16       29.75S
PRESTON        CLOUDY    40  36  84 E12       29.79S
$$
ABBREVIATIONS USED IN REMARKS
   TC - TEMPERATURES IN CELSIUS
  WCI - WIND CHILL INDEX
   HX - HEAT INDEX
  VSB - VISIBILITY
$$



USA.gov is the U.S. government's official web portal to all federal, state and local government web resources and services.